Location: George Washington National Forest Helicopter Landing Site
(38.6463°N, 79.0851°W)
Time: 07:52:03
(UTC-04:00)

Tiros 1 despin weight - Pass Details

Date: 25 August 2019
Orbit: 594 x 642 km, 48.2° (Epoch: 21 September)

Event Time Altitude Azimuth Distance (km) Brightness Sun altitude
Rises 01:56:38 0° 284° (WNW) 2,838 - -39.7°
Reaches altitude 10° 01:59:15 10° 298° (WNW) 1,943 - -39.6°
Maximum altitude 02:02:56 25° 353° (N) 1,243 - -39.4°
Drops below altitude 10° 02:06:41 10° 49° (NE) 1,968 - -39.3°
Exits shadow 02:07:38 - 56° (NE) 2,280 ? -39.2°
Sets 02:09:21 0° 63° (ENE) 2,883 ? -39.1°
